Back to catalog

SENTINEL 3A

AliveScienceSSO
NORAD 41335·PAYLOAD·🇪🇺 EU

Launched Feb 16, 2016 from Plesetsk Cosmodrome

Loading…

Next Passes (next 24 hours)

TLE

FreshSource: Space-Track

Epoch: Sep 14, 2026, 15:10 UTC

1 41335U 16011A   26257.63212973  .00000072  00000-0  48004-4 0  9999
2 41335  98.6284 323.7190 0001112 106.5155 253.6148 14.26734794550813

Track SENTINEL 3A in real time with AllMySat

Download on the App Store